Temperature
22 22 21 20 19 19 22 23 24 24 24 25 25 24 23 22 22 22 21 21 21 20 20 20 19 19 19 20 20 19 19 19 19 19 19 19 19 19 19 18 18 18 18 18 18 18 18 18 18
22 22 21 21 20 21 23 24 24 25 25 25 25 24 23 22 22 22 21 21 21 21 20 20 20 19 19 19 19 19 19 19 19 19 19 19 19 19 19 18 18 18 18 18 18 18 18 18 17
22 22 21 19 20 21 24 24 24 25 25 25 24 24 23 23 22 22 22 21 21 21 20 20 20 19 19 19 19 19 19 19 19 19 19 19 19 19 18 18 18 18 18 18 18 18 17 17 17
22 22 21 19 22 22 23 25 24 24 25 25 24 23 23 23 23 23 22 21 21 21 20 20 20 20 19 19 19 19 19 19 19 19 18 18 19 18 18 18 18 18 18 18 17 17 17 17 17
22 22 20 20 22 23 24 25 25 24 25 25 24 23 22 22 23 23 22 21 21 21 20 20 20 20 19 19 19 19 19 19 19 19 18 18 18 18 18 18 18 18 18 17 17 17 17 17 17
23 20 19 20 22 24 25 26 25 25 25 24 24 22 21 22 23 23 22 21 21 21 20 20 20 19 19 19 19 19 19 19 18 18 18 18 18 18 18 18 18 18 18 17 17 17 17 17 17
22 19 20 22 22 24 26 26 26 25 24 24 24 22 21 22 23 22 22 21 21 21 20 20 20 19 19 19 19 19 19 18 18 18 18 18 18 18 18 18 18 18 17 17 17 17 17 17 17
23 19 21 21 23 24 26 26 26 26 25 25 24 22 21 22 22 22 21 21 20 20 20 20 19 19 19 19 19 19 18 18 18 18 18 18 18 18 18 18 18 18 17 17 17 17 17 17 17
23 19 20 22 23 24 25 25 26 26 25 24 24 24 24 23 22 21 20 20 20 20 20 20 19 19 19 19 18 18 18 18 18 18 18 18 18 18 18 18 18 17 17 17 17 17 17 17 17
22 19 21 23 24 24 25 25 26 25 24 24 24 23 23 22 21 21 20 20 20 19 19 19 19 19 19 18 18 18 18 18 18 18 18 18 18 18 18 18 17 17 17 17 17 17 17 17 17
22 21 22 24 25 25 25 25 26 25 24 24 24 23 23 22 21 21 21 21 20 20 19 19 19 19 19 18 18 18 18 18 18 18 18 18 18 18 18 18 17 17 17 17 17 17 17 17 17
22 22 24 25 26 25 25 25 25 25 26 27 26 25 24 22 22 21 21 20 20 19 19 19 19 19 19 18 18 18 18 18 18 18 18 18 18 18 18 18 17 17 17 17 17 17 17 17 17
23 23 25 26 26 26 25 25 25 25 27 27 26 24 23 23 22 21 21 20 20 20 19 19 19 19 18 18 18 18 18 18 18 18 18 18 18 18 17 17 17 17 17 17 17 17 17 17 17
24 24 24 25 26 26 25 25 24 25 26 26 25 24 23 23 22 21 20 20 20 20 19 19 19 19 19 18 18 18 18 18 18 18 18 17 17 17 17 17 17 17 17 17 17 17 17 17 17
24 23 23 24 25 25 25 25 24 25 25 25 24 23 22 21 21 21 21 20 20 19 19 19 19 19 18 18 18 18 18 18 18 18 17 17 17 17 17 17 17 17 17 17 17 17 17 17 17
23 22 23 23 24 25 25 24 24 25 24 23 22 22 21 20 20 20 20 20 20 19 19 19 19 18 18 18 18 18 18 18 18 17 17 17 17 17 17 17 17 17 17 17 17 17 16 16 17
21 21 23 23 24 24 24 24 23 24 23 22 22 21 20 20 20 20 20 20 20 19 19 19 18 18 18 18 18 18 17 17 17 17 17 17 17 17 17 17 17 17 17 17 17 16 16 16 16
21 22 22 22 23 24 23 22 23 23 23 22 21 21 20 20 20 20 19 19 19 19 19 19 18 18 18 18 17 17 17 17 17 17 17 17 17 17 17 17 17 17 17 17 16 16 16 16 16
22 22 21 22 23 23 23 22 22 22 22 21 21 20 20 20 20 19 19 19 19 19 19 19 18 18 18 17 17 17 17 17 17 17 17 17 17 17 17 17 17 17 16 16 16 16 16 16 16
22 22 21 22 23 24 23 22 22 21 22 21 21 21 21 20 19 19 19 19 19 19 19 18 18 18 17 17 17 17 17 17 17 17 17 17 17 17 17 17 17 17 16 16 16 16 16 16 16
22 21 22 22 22 23 23 22 22 22 21 21 21 21 21 21 20 19 19 19 19 19 19 18 18 18 17 17 17 17 17 17 17 17 17 17 17 17 17 17 17 16 16 16 16 16 16 16 16
21 22 22 23 22 20 22 21 21 21 20 20 20 20 20 20 20 20 19 19 19 19 19 18 18 18 17 17 17 17 17 17 17 17 17 17 17 16 16 16 16 16 16 16 16 16 16 16 16
22 23 23 22 21 20 21 20 20 20 21 20 20 20 20 20 20 20 19 19 19 19 18 18 17 17 17 17 17 17 17 17 17 17 17 17 17 16 16 16 16 16 16 16 16 16 16 16 16
23 22 20 18 18 20 21 20 20 19 20 20 20 20 20 20 20 19 19 19 18 18 18 18 17 17 17 17 17 17 17 17 17 17 17 17 17 16 16 16 16 16 16 16 16 16 16 16 16
22 20 19 20 18 19 19 20 19 20 20 20 20 20 20 20 19 19 19 19 18 18 18 18 17 17 17 17 17 17 17 17 17 17 17 17 17 17 17 16 16 16 16 16 16 16 16 16 16
21 20 19 20 19 19 19 19 20 21 20 21 20 20 20 20 19 19 19 19 18 18 18 17 17 17 17 17 17 17 17 17 17 17 17 17 17 17 17 17 16 16 16 16 16 16 16 16 16
20 19 19 18 19 19 19 19 20 21 20 19 19 19 19 19 19 19 19 19 18 18 18 17 17 17 17 17 17 17 17 17 17 17 17 17 17 17 17 17 16 16 16 16 16 16 16 16 16
21 18 17 17 18 19 20 20 20 21 20 19 18 19 19 19 19 19 19 19 18 18 18 18 17 17 17 17 17 17 17 17 17 17 17 17 17 17 16 16 16 16 16 16 16 16 16 16 16
20 19 17 16 17 18 19 20 20 20 19 19 18 19 19 19 20 20 19 19 19 18 18 18 18 17 17 17 17 17 17 17 17 17 17 17 17 17 16 16 16 16 16 16 16 16 16 15 15
21 19 17 19 18 17 18 19 20 19 18 19 19 19 19 19 19 19 19 19 19 18 18 18 18 17 17 17 17 17 17 17 17 17 16 16 16 16 16 16 16 16 16 16 16 16 16 15 15
Wind_Speed
4 5 3 1 4 5 2 3 1 2 2 0 3 4 6 4 4 3 4 14 18 17 18 21 21 20 20 19 19 19 19 19 18 18 17 17 16 16 15 15 14 14 15 15 15 15 16 16 16
4 4 1 3 5 3 4 3 1 1 1 2 3 4 4 2 4 7 7 12 19 17 18 20 22 21 20 19 19 18 18 18 18 17 17 16 16 15 15 14 14 14 14 15 15 15 15 15 15
4 2 3 4 3 3 3 3 1 1 1 1 2 3 3 4 7 8 8 17 17 15 17 20 23 21 20 19 18 18 18 17 17 16 16 15 15 15 14 14 14 14 14 15 15 15 15 14 14
3 3 4 5 0 4 5 4 2 2 1 1 3 3 3 2 7 8 16 18 18 14 17 21 23 22 20 19 18 18 17 17 16 16 15 15 15 14 14 14 14 14 14 14 14 14 13 13 13
3 4 5 3 4 5 5 4 5 4 2 1 3 4 2 4 9 16 19 19 18 14 15 20 23 22 20 19 18 18 17 16 16 15 15 14 14 13 13 13 13 13 13 13 13 12 12 11 11
4 4 4 2 5 5 4 3 4 3 2 2 4 4 2 4 11 17 18 16 16 16 14 19 23 22 21 20 19 18 17 16 15 15 15 14 13 13 13 13 12 12 12 12 11 11 11 10 9
4 4 2 2 4 5 3 1 3 4 3 4 5 5 2 5 9 15 14 14 14 13 12 13 19 20 21 20 19 18 17 16 15 14 14 13 13 12 12 12 12 11 11 10 10 10 10 9 9
5 4 1 2 3 4 3 2 0 4 3 3 5 7 6 8 12 14 14 13 13 12 11 10 13 15 16 17 19 18 17 16 15 14 14 13 12 12 11 10 10 10 10 9 9 9 8 8 8
4 4 1 4 4 5 3 2 1 1 3 2 2 3 5 17 17 16 15 12 13 13 10 9 10 12 13 14 17 17 17 16 15 14 14 12 10 10 9 9 9 9 9 8 8 8 7 7 7
4 3 6 5 5 4 5 3 2 2 2 2 1 5 15 20 19 19 20 19 17 16 13 10 10 10 12 13 13 12 12 13 12 11 11 10 9 8 7 8 8 8 7 7 6 7 7 7 6
5 6 5 6 7 6 4 4 2 5 5 8 8 11 19 20 18 18 18 18 17 16 15 12 10 9 9 7 10 9 9 10 10 10 11 10 8 7 5 4 4 5 6 5 5 6 5 5 5
4 6 6 6 4 4 4 3 2 6 9 7 9 17 21 21 20 19 18 16 14 15 14 13 11 9 8 8 8 8 7 8 7 9 11 9 6 4 4 3 3 4 4 4 4 4 4 4 4
4 6 6 7 8 5 4 5 4 6 6 3 11 16 19 19 17 13 12 14 15 15 15 14 12 11 8 7 7 7 6 7 8 9 10 9 6 4 3 3 3 3 3 3 3 3 3 3 3
4 6 8 8 7 3 3 4 2 6 2 7 12 15 16 16 14 12 13 13 15 15 15 14 13 11 9 7 6 6 7 8 8 8 9 9 8 6 4 3 3 3 3 3 3 3 3 2 2
4 5 8 5 4 2 1 5 5 4 5 7 10 11 12 11 11 13 14 14 14 13 13 14 13 11 11 9 7 7 8 9 7 8 9 10 9 8 6 4 3 3 4 4 5 4 4 3 2
4 4 5 6 4 2 2 7 7 2 7 8 8 10 10 8 9 9 9 10 12 13 13 13 13 12 11 9 7 7 8 9 7 8 9 10 10 9 7 4 3 4 5 5 3 3 3 2 2
5 3 4 7 4 3 1 7 7 1 6 8 8 9 9 8 7 7 9 10 12 13 14 14 11 12 11 10 7 7 7 7 7 8 8 9 10 10 8 5 5 6 5 3 3 2 2 2 2
3 2 4 6 5 5 5 7 7 2 5 6 6 7 8 8 8 8 9 10 11 12 13 13 11 10 9 8 6 5 5 5 6 7 8 10 10 11 9 6 6 6 4 3 3 3 3 2 3
3 3 7 8 6 4 6 7 6 2 2 4 5 7 8 8 7 8 9 10 12 12 12 13 13 11 10 7 8 7 6 5 5 5 8 10 11 11 9 5 5 5 4 4 4 3 4 2 2
4 5 7 8 3 2 5 7 4 1 2 5 7 8 9 8 8 8 9 10 12 13 13 12 12 12 10 8 7 5 5 4 5 4 7 10 11 11 10 7 5 5 4 4 4 3 3 2 2
6 6 6 6 7 5 3 7 5 3 1 1 4 6 8 10 11 10 10 10 10 12 14 13 12 11 10 8 5 5 4 3 3 4 5 7 10 11 10 9 7 6 5 5 4 4 5 3 1
6 7 8 5 2 5 2 4 7 4 4 2 3 5 7 8 9 9 10 10 10 10 10 11 11 10 10 9 9 10 8 6 6 6 5 5 8 10 10 10 8 6 5 5 5 4 3 5 3
8 3 3 2 3 2 2 2 8 4 5 6 5 5 5 7 10 10 10 10 9 8 8 9 10 10 10 10 10 10 7 5 5 5 6 6 5 7 9 9 8 6 5 5 5 4 4 3 4
5 5 6 6 5 1 3 3 7 5 6 5 4 3 4 7 9 8 7 7 6 7 7 8 10 9 10 10 10 10 10 8 8 8 7 6 4 4 6 8 7 7 5 6 5 5 5 4 4
5 6 4 4 3 6 3 3 9 7 6 5 4 3 4 7 8 8 8 8 8 8 8 8 9 9 9 10 10 9 9 10 10 9 8 7 5 4 6 6 6 5 6 6 6 5 5 5 5
7 10 8 6 5 5 2 5 7 5 4 3 2 4 6 7 7 8 8 7 7 8 8 8 9 8 9 10 10 8 9 8 7 8 7 8 7 6 7 7 7 6 7 7 6 4 4 4 4
8 6 8 7 3 1 5 7 8 2 1 1 3 5 6 7 7 7 7 7 7 7 8 8 9 8 8 8 8 8 8 8 7 7 7 6 5 5 7 7 7 7 7 7 6 4 4 5 4
7 10 7 7 7 4 5 5 5 6 4 1 3 4 5 6 6 7 6 6 6 6 6 7 8 8 8 8 8 8 7 7 7 7 7 7 6 6 7 7 7 6 6 6 6 4 4 5 4
6 6 6 6 6 7 4 7 6 7 5 4 5 5 6 7 7 7 6 6 5 5 6 7 7 7 7 8 7 7 7 7 7 7 7 7 6 7 8 8 7 7 6 6 6 6 6 6 5
6 8 8 7 5 5 5 7 5 4 3 3 4 5 6 7 7 6 6 5 5 5 5 6 7 7 7 7 7 7 7 7 7 7 7 7 7 7 8 8 8 7 7 7 7 7 7 7 7
Wind_Direction
185 154 142 116 55 44 350 300 261 355 350 357 139 142 145 149 171 188 129 141 138 144 150 150 147 142 138 133 130 129 127 127 127 126 125 124 124 123 122 121 119 116 114 112 109 108 108 108 110
140 149 117 64 74 51 314 291 320 316 177 97 85 97 102 97 90 113 129 143 142 145 148 150 149 146 142 138 135 133 132 131 130 129 127 126 125 124 122 121 119 117 116 114 112 110 110 110 110
153 150 89 69 89 166 262 274 231 13 150 70 76 72 110 139 134 143 150 144 141 144 147 153 151 148 145 142 139 137 136 135 134 132 130 129 127 126 125 123 121 120 118 116 114 113 112 113 113
119 61 58 66 285 232 232 241 187 166 267 43 113 92 70 92 147 145 142 144 143 144 148 156 153 152 149 147 144 141 140 139 137 135 133 131 129 128 127 125 122 121 119 117 115 115 115 116 116
68 77 54 20 283 259 248 234 181 179 211 146 130 126 67 30 116 134 143 148 147 146 150 157 156 155 153 151 148 146 145 143 141 139 136 134 133 131 129 126 123 121 119 117 117 116 116 117 116
55 65 70 330 299 287 267 207 164 179 187 145 137 128 69 99 129 143 147 149 149 150 151 157 158 158 156 155 153 152 150 148 146 143 140 138 136 134 131 129 126 123 121 118 116 116 116 114 112
102 93 135 254 293 305 314 105 157 169 188 188 154 131 126 140 145 143 142 142 145 148 150 154 159 160 160 160 158 156 154 152 150 146 143 142 140 137 133 132 130 127 123 120 116 114 113 113 112
124 101 73 268 262 279 294 351 246 164 200 143 135 157 184 168 144 135 134 138 145 150 152 151 153 156 159 162 161 159 157 156 153 149 148 147 145 141 138 135 133 130 127 122 116 112 111 114 115
99 76 236 233 222 260 276 322 314 142 129 143 164 173 156 141 141 139 140 145 155 159 156 151 149 151 154 158 165 162 160 159 155 154 153 146 137 136 135 141 141 136 132 124 117 112 109 108 113
102 156 233 227 218 253 279 273 235 141 152 191 98 90 130 144 153 157 161 164 167 167 163 157 155 153 155 163 160 156 155 155 152 151 144 137 135 136 139 153 148 142 135 125 117 113 106 103 104
164 205 246 257 245 254 268 278 195 163 214 214 193 156 151 157 164 169 172 171 171 167 166 163 160 159 157 152 149 147 145 146 147 146 142 139 135 134 134 136 124 118 116 101 96 93 97 109 117
197 247 246 272 275 276 243 244 217 200 228 220 175 158 161 168 176 177 175 171 166 167 170 166 165 162 155 147 148 144 144 146 147 149 148 144 138 134 139 131 112 99 101 97 92 93 102 108 121
229 268 270 267 285 262 245 232 221 246 253 136 143 155 171 177 179 176 171 168 167 172 173 172 167 164 154 145 150 152 151 156 155 154 159 159 154 154 152 146 137 127 118 110 107 103 103 104 121
252 267 287 284 288 274 243 274 204 254 183 135 150 166 178 180 174 168 170 173 176 176 175 170 168 164 155 154 151 153 158 161 159 163 169 172 171 168 162 158 157 154 141 126 119 111 107 101 116
302 312 320 305 306 303 51 313 256 236 142 148 163 169 173 176 172 179 179 177 175 177 174 171 169 165 161 157 156 163 167 166 170 175 180 182 183 177 169 165 167 167 148 126 107 96 96 102 103
9 14 334 306 325 339 97 277 282 174 152 162 169 171 170 173 176 179 177 170 168 171 173 171 175 170 168 163 160 166 173 170 173 177 183 187 189 182 171 167 173 164 143 129 115 104 97 93 98
19 360 308 308 328 12 26 272 288 213 166 174 177 172 166 166 170 175 173 169 168 166 166 168 176 174 175 168 166 165 165 167 171 177 183 186 188 184 176 172 168 158 139 133 136 105 114 124 118
243 283 302 296 310 339 312 276 289 253 185 181 173 163 164 176 183 174 171 167 166 165 169 171 175 175 171 161 157 152 151 164 171 179 184 181 180 180 175 167 162 154 138 134 126 116 93 105 116
185 254 282 276 290 313 299 294 293 268 174 164 166 171 176 182 167 163 166 163 163 166 173 176 174 174 170 171 173 173 180 177 174 182 182 179 176 174 169 164 159 158 156 158 143 120 106 95 101
210 267 283 297 322 300 298 302 299 261 190 182 181 185 180 169 160 164 161 165 171 175 179 181 179 176 179 182 177 170 165 174 178 174 179 180 175 172 174 166 166 161 149 145 146 131 120 107 116
234 224 247 270 325 353 341 327 316 320 10 162 178 177 177 178 172 170 170 174 176 182 186 186 184 179 180 173 157 144 132 129 153 169 177 181 177 176 176 174 166 163 161 165 165 151 143 143 117
249 229 221 250 323 302 20 290 293 304 306 258 213 185 183 177 170 172 173 178 186 189 184 182 181 180 178 172 173 169 175 179 184 177 176 174 177 179 179 175 170 167 166 167 174 166 150 142 147
218 210 202 236 194 275 335 186 285 316 281 265 244 214 190 176 173 178 179 183 184 180 180 179 177 180 180 179 180 178 179 176 160 157 160 171 176 180 179 174 170 170 170 172 168 161 155 149 155
186 73 55 49 81 277 250 180 275 256 240 257 243 215 184 167 169 171 168 164 168 172 176 175 177 183 182 182 183 183 178 167 161 164 169 173 171 177 178 175 173 172 171 172 174 170 165 162 154
127 98 30 359 16 249 266 206 251 259 249 242 237 204 169 161 163 166 164 167 170 175 178 180 181 187 185 182 185 184 181 175 178 175 176 174 175 183 185 178 173 173 176 174 168 168 171 169 165
172 146 160 192 217 268 304 235 255 269 272 258 185 160 149 157 164 167 170 170 172 176 177 177 180 182 181 183 184 179 176 176 180 178 177 182 187 187 180 179 179 179 177 174 168 167 175 172 174
146 178 163 136 152 236 283 285 306 281 326 83 121 139 154 163 165 161 161 166 169 173 177 175 173 175 176 178 175 171 172 173 173 174 175 179 179 179 178 180 178 181 178 173 167 175 181 174 182
146 143 113 131 149 214 283 283 263 275 263 207 157 166 163 155 151 149 155 161 163 169 169 168 171 177 175 173 175 177 173 173 169 169 176 179 178 174 172 179 181 180 179 177 174 177 182 179 185
119 115 116 118 146 157 218 267 233 238 235 211 199 181 168 163 161 156 155 156 152 151 161 167 168 167 170 174 173 169 170 170 171 179 185 184 180 179 181 183 182 182 184 182 179 184 183 187 191
156 159 147 149 183 167 169 257 282 251 219 193 186 171 162 158 154 152 150 148 149 153 162 171 172 173 174 173 169 170 169 169 175 185 188 184 184 186 186 181 181 186 188 185 186 192 192 194 197
Height
1496 1495 1496 1497 1500 1508 1507 1499 1493 1491 1489 1488 1488 1489 1490 1493 1498 1502 1497 1498 1504 1508 1513 1517 1521 1523 1526 1528 1530 1532 1533 1535 1537 1538 1540 1541 1543 1544 1545 1546 1547 1547 1548 1549 1550 1551 1551 1552 1553
1496 1496 1497 1498 1506 1518 1510 1496 1493 1490 1489 1489 1489 1490 1490 1492 1493 1494 1495 1500 1505 1509 1513 1518 1521 1524 1527 1529 1531 1533 1535 1537 1538 1540 1542 1543 1544 1545 1546 1547 1548 1549 1550 1551 1552 1553 1554 1555 1556
1496 1496 1498 1500 1508 1514 1506 1494 1491 1489 1489 1489 1490 1490 1491 1492 1493 1494 1497 1501 1506 1511 1515 1519 1522 1526 1528 1531 1533 1535 1537 1538 1540 1542 1543 1545 1546 1547 1548 1549 1550 1551 1552 1553 1554 1555 1556 1557 1558
1496 1498 1499 1505 1507 1503 1497 1491 1490 1490 1489 1490 1490 1492 1492 1494 1494 1496 1498 1503 1507 1512 1516 1520 1523 1526 1529 1532 1534 1536 1538 1540 1542 1543 1545 1547 1548 1549 1550 1551 1552 1553 1554 1555 1556 1557 1558 1560 1561
1496 1497 1504 1511 1507 1498 1491 1488 1489 1489 1489 1489 1490 1492 1493 1495 1496 1497 1500 1504 1508 1512 1517 1520 1524 1527 1530 1533 1535 1537 1540 1541 1543 1545 1547 1548 1550 1551 1552 1553 1554 1555 1556 1558 1559 1560 1561 1562 1563
1497 1499 1513 1516 1505 1494 1488 1487 1487 1488 1488 1489 1490 1492 1494 1495 1496 1499 1501 1505 1510 1513 1517 1521 1524 1528 1530 1533 1536 1538 1540 1543 1545 1546 1548 1550 1551 1553 1554 1555 1556 1557 1558 1560 1561 1562 1563 1564 1565
1498 1504 1511 1509 1505 1497 1488 1486 1487 1487 1488 1489 1489 1492 1493 1494 1497 1499 1502 1506 1511 1515 1518 1521 1524 1528 1531 1534 1536 1539 1541 1543 1546 1548 1550 1551 1553 1554 1555 1556 1558 1559 1560 1561 1563 1564 1565 1566 1568
1497 1503 1507 1508 1504 1498 1489 1487 1487 1487 1488 1489 1490 1490 1491 1493 1496 1499 1503 1507 1511 1515 1518 1521 1525 1528 1531 1534 1537 1539 1542 1544 1547 1549 1550 1552 1554 1555 1557 1558 1559 1560 1562 1563 1564 1565 1567 1568 1570
1498 1507 1511 1504 1500 1494 1488 1487 1487 1487 1488 1488 1489 1489 1490 1492 1495 1499 1502 1506 1510 1514 1518 1521 1524 1528 1531 1534 1538 1540 1543 1545 1547 1549 1551 1553 1555 1557 1558 1559 1561 1562 1563 1565 1566 1567 1568 1570 1571
1497 1508 1502 1494 1491 1489 1486 1486 1485 1486 1487 1487 1487 1488 1489 1491 1494 1496 1499 1502 1507 1511 1516 1520 1524 1527 1531 1534 1537 1540 1543 1545 1548 1550 1552 1554 1556 1557 1559 1561 1562 1563 1565 1566 1567 1568 1570 1571 1572
1496 1499 1493 1489 1487 1486 1485 1484 1484 1484 1486 1484 1483 1485 1487 1489 1493 1495 1497 1500 1504 1510 1515 1519 1524 1527 1530 1534 1537 1540 1543 1546 1548 1550 1552 1554 1556 1558 1560 1561 1563 1564 1566 1567 1568 1570 1571 1572 1573
1494 1491 1490 1487 1485 1484 1483 1482 1482 1482 1480 1479 1481 1482 1485 1487 1490 1493 1496 1501 1505 1509 1514 1518 1523 1526 1530 1534 1537 1540 1543 1546 1548 1550 1553 1555 1557 1559 1560 1562 1564 1565 1567 1568 1569 1571 1572 1573 1575
1492 1489 1487 1485 1483 1482 1481 1480 1480 1479 1478 1478 1479 1481 1483 1485 1489 1493 1497 1501 1504 1507 1512 1517 1521 1525 1529 1533 1536 1540 1543 1546 1548 1551 1553 1556 1558 1560 1561 1563 1565 1566 1568 1569 1570 1572 1573 1574 1576
1489 1487 1485 1482 1480 1479 1479 1478 1479 1476 1476 1477 1477 1479 1482 1485 1488 1492 1495 1498 1502 1505 1510 1514 1519 1524 1528 1532 1535 1539 1542 1545 1548 1551 1553 1556 1559 1560 1562 1564 1566 1567 1568 1570 1571 1572 1574 1575 1576
1488 1488 1485 1480 1479 1478 1479 1480 1476 1475 1475 1476 1477 1479 1482 1485 1488 1490 1493 1497 1501 1505 1508 1512 1517 1522 1526 1530 1535 1538 1542 1545 1548 1551 1554 1556 1559 1561 1563 1564 1566 1568 1569 1570 1572 1573 1574 1575 1577
1488 1492 1495 1484 1480 1479 1483 1487 1474 1474 1474 1475 1477 1479 1481 1485 1487 1491 1494 1497 1500 1503 1507 1511 1516 1520 1524 1528 1533 1537 1541 1544 1547 1551 1553 1556 1558 1561 1563 1565 1566 1568 1569 1571 1572 1573 1575 1576 1577
1498 1503 1499 1490 1481 1480 1483 1485 1474 1473 1473 1475 1476 1478 1481 1485 1488 1491 1493 1496 1499 1501 1505 1509 1514 1518 1522 1527 1531 1536 1540 1543 1546 1550 1553 1555 1558 1560 1562 1564 1566 1568 1569 1571 1572 1573 1575 1576 1577
1504 1501 1499 1496 1484 1482 1484 1482 1474 1472 1473 1474 1476 1479 1481 1484 1486 1489 1492 1495 1497 1501 1505 1508 1512 1517 1521 1525 1530 1534 1538 1541 1545 1548 1551 1554 1557 1559 1562 1564 1566 1567 1569 1570 1572 1573 1574 1576 1577
1494 1498 1501 1493 1484 1484 1484 1481 1475 1472 1473 1475 1477 1479 1481 1482 1486 1489 1491 1494 1496 1499 1503 1506 1510 1514 1518 1522 1526 1530 1534 1539 1543 1546 1550 1553 1556 1558 1561 1563 1565 1566 1568 1570 1571 1573 1574 1575 1577
1493 1498 1498 1490 1483 1483 1484 1481 1475 1473 1473 1473 1474 1476 1478 1481 1484 1486 1489 1491 1493 1496 1500 1503 1507 1511 1515 1520 1524 1529 1533 1537 1541 1544 1548 1552 1555 1557 1559 1561 1564 1566 1567 1569 1570 1572 1573 1575 1576
1493 1496 1495 1493 1486 1483 1485 1487 1479 1474 1474 1474 1473 1474 1476 1478 1481 1484 1487 1489 1492 1495 1498 1501 1505 1509 1514 1518 1523 1527 1531 1535 1538 1542 1546 1550 1553 1556 1558 1560 1563 1564 1566 1568 1570 1571 1572 1574 1575
1495 1485 1487 1489 1496 1501 1493 1506 1486 1479 1476 1473 1473 1473 1474 1477 1479 1482 1485 1488 1490 1493 1496 1499 1503 1507 1512 1516 1520 1523 1527 1530 1534 1539 1543 1547 1551 1554 1557 1559 1561 1563 1565 1567 1568 1570 1571 1573 1574
1483 1479 1483 1487 1494 1501 1498 1505 1496 1481 1478 1474 1471 1472 1473 1475 1478 1481 1483 1486 1488 1491 1494 1497 1502 1505 1509 1513 1517 1521 1525 1529 1533 1538 1542 1546 1549 1552 1555 1558 1560 1562 1563 1565 1567 1568 1570 1571 1572
1474 1481 1488 1497 1503 1512 1500 1505 1500 1486 1477 1472 1470 1471 1472 1474 1478 1480 1483 1485 1488 1491 1493 1495 1499 1503 1507 1511 1515 1518 1523 1527 1531 1535 1539 1543 1547 1550 1553 1555 1558 1560 1562 1564 1565 1567 1568 1569 1571
1476 1494 1513 1514 1522 1517 1501 1502 1497 1475 1470 1469 1469 1470 1471 1474 1477 1480 1482 1484 1487 1489 1491 1494 1497 1501 1504 1508 1512 1516 1520 1524 1529 1533 1537 1541 1544 1547 1550 1553 1556 1558 1560 1562 1563 1565 1566 1568 1569
1478 1488 1511 1520 1522 1515 1501 1502 1485 1470 1468 1467 1467 1469 1471 1473 1476 1478 1481 1484 1486 1488 1490 1493 1496 1499 1503 1506 1509 1514 1519 1523 1527 1531 1535 1539 1542 1546 1549 1552 1554 1556 1558 1560 1561 1563 1564 1566 1567
1477 1484 1484 1504 1510 1513 1507 1495 1479 1468 1467 1467 1468 1469 1471 1473 1475 1478 1481 1483 1485 1488 1490 1492 1495 1498 1501 1504 1508 1512 1516 1521 1525 1529 1534 1537 1541 1544 1547 1549 1552 1554 1556 1557 1559 1560 1562 1563 1565
1463 1475 1492 1504 1517 1518 1505 1498 1491 1474 1470 1468 1469 1469 1471 1473 1475 1478 1481 1483 1485 1488 1490 1492 1495 1498 1501 1504 1507 1511 1514 1519 1524 1528 1531 1535 1538 1541 1544 1547 1549 1551 1553 1555 1556 1558 1559 1561 1562
1470 1476 1485 1498 1501 1515 1515 1502 1474 1471 1468 1468 1468 1469 1470 1473 1475 1478 1481 1483 1485 1487 1490 1492 1494 1497 1500 1503 1507 1510 1514 1518 1522 1526 1529 1532 1535 1538 1541 1544 1546 1548 1550 1552 1553 1555 1556 1558 1559
1458 1467 1479 1492 1500 1504 1507 1498 1466 1465 1464 1465 1466 1468 1469 1472 1475 1478 1480 1482 1484 1486 1489 1491 1493 1496 1499 1503 1506 1509 1513 1516 1520 1523 1526 1530 1532 1535 1538 1541 1543 1545 1547 1548 1550 1552 1553 1555 1556